Terug naar catalogus

SL-12 R/B(2)

ActiefHEO
NORAD 25465·ROCKET BODY·🇷🇺 Russia

Gelanceerd Aug 30, 1998 vanaf Baikonur Cosmodrome

Loading…

Volgende Passages (komende 24 uur)

TLE

VersSource: Space-Track

Epoch: Sep 14, 2026, 10:28 UTC

1 25465U 98050D   26257.43638280 -.00000174  00000-0  00000-0 0  9993
2 25465  14.9470  71.3110 4956802  89.3607 310.4214  1.82826445 87953

Volg SL-12 R/B(2) in realtime met AllMySat

Download on the App Store